Flag for Canada Weather past 2 weeks in Dryden, Ontario, Canada

Now
45 °F

Passing clouds.


Feels Like: 39 °F
Forecast: 21 / 47 °F
Wind: 12 mph from Southeast

Location: Dryden Airport

Current Time: Apr 1, 2015 at 8:23:44 PM

Latest Report: Apr 1, 2015 at 8:00 PM


Visibility: 9 mi

Pressure: 29.41 "Hg

Humidity: 61%

Dew point: 32 °F

Location of DrydenLocation

Historic Weather in Dryden — Graph

°F

Dryden temperature yesterday

Maximum temperature yesterday: 39 °F (at 5:00 PM)
Minimum temperature yesterday: 32 °F (at 9:00 PM)
Average temperature yesterday: 35 °F

Past Weeks' High & Low Weather Summary

 TemperatureHumidityPressure
High52 °F (Apr 1, 5:00 PM)100% (Mar 25, 10:02 AM)30.48 "Hg (Mar 25, 10:02 AM)
Low0 °F (Mar 21, 7:00 AM)28% (Mar 23, 4:00 PM)29.42 "Hg (Mar 29, 7:04 AM)
Average27 °F66%30.03 "Hg
* Reported Mar 17 7:00 PM — Apr 1 7:00 PM, Dryden, Weather by CustomWeather, © 2015

Note: Actual official high and low records may vary slightly from our data, if they occured in-between our weather recording intervals... More about our weather records

Advertising

Dryden weather history for previous 24 hours

 ConditionsComfort  
Time TempWeatherWind HumidityBarometerVisibility
7:00 PM
Wed, Apr 1
48 °FScattered clouds.13 mph54%29.44 "Hg9 mi
6:00 PM50 °FSunny.15 mph50%29.44 "Hg9 mi
5:00 PM52 °FSunny.18 mph47%29.46 "Hg9 mi
4:00 PM50 °FSunny.20 mph50%29.48 "Hg9 mi
3:00 PM50 °FSunny.16 mph50%29.51 "Hg9 mi
2:00 PM48 °FPassing clouds.22 mph50%29.54 "Hg9 mi
1:00 PM46 °FPassing clouds.17 mph57%29.60 "Hg9 mi
12:00 PM43 °FBroken clouds.18 mph61%29.63 "Hg9 mi
11:00 AM41 °FBroken clouds.13 mph70%29.70 "Hg9 mi
10:00 AM36 °FBroken clouds.13 mph81%29.75 "Hg9 mi
9:00 AM34 °FOvercast.14 mph87%29.78 "Hg9 mi
8:00 AM32 °FPartly sunny.15 mph93%29.80 "Hg9 mi
7:00 AM32 °FMostly cloudy.16 mph93%29.83 "Hg9 mi
6:00 AM32 °FOvercast.15 mph93%29.85 "Hg9 mi
5:00 AM32 °FMostly cloudy.12 mph93%29.87 "Hg9 mi
4:00 AM32 °FPassing clouds.13 mph93%29.88 "Hg9 mi
3:00 AM32 °FMostly cloudy.13 mph93%29.89 "Hg9 mi
2:00 AM32 °FPartly cloudy.10 mph93%29.91 "Hg9 mi
1:00 AM32 °FMostly cloudy.10 mph93%29.92 "Hg9 mi
12:00 AM34 °FMostly cloudy.9 mph93%29.93 "Hg9 mi
11:00 PM
Tue, Mar 31
32 °FMostly cloudy.7 mph100%29.94 "Hg9 mi
10:00 PM32 °FPassing clouds.6 mph93%29.96 "Hg9 mi
9:00 PM32 °FOvercast.5 mph93%29.95 "Hg9 mi
8:00 PM36 °FOvercast.3 mph87%29.95 "Hg9 mi
Weather by CustomWeather, © 2015

See weather overviewHow to use our weather pages